Theta_e
321 322 328 329 333 333 336 338 338 346 346 343 343 344 348 348 349 349 343 349 349 333 334 335 334 332 336 341 342 343 342 340 332 322 319 322 331 333 327 324 323 322 324 326 326 327 331 335 337
321 326 327 329 333 334 335 337 338 345 344 343 342 343 347 346 345 342 346 350 345 332 335 336 333 330 333 339 342 343 342 338 330 322 320 322 329 328 324 323 323 323 323 324 325 326 327 330 333
320 323 327 331 333 335 335 337 338 342 339 342 344 350 349 345 343 343 347 350 340 334 335 335 331 328 332 339 342 342 340 336 328 322 320 323 327 325 324 323 323 323 323 323 323 323 324 325 325
320 325 327 331 333 333 334 336 336 342 341 341 345 355 346 343 344 346 349 349 343 338 336 335 329 325 327 332 335 335 335 331 326 320 320 324 324 324 324 324 323 322 323 323 323 322 322 322 322
319 325 329 332 332 333 333 333 335 339 340 339 345 355 347 348 346 347 349 346 343 343 337 333 328 326 326 326 326 327 328 326 323 319 320 322 324 324 325 324 322 321 321 322 322 322 322 321 321
318 323 328 332 334 333 333 333 336 339 339 339 350 356 355 349 345 347 348 345 343 344 336 332 329 328 327 324 321 321 322 323 320 319 321 323 324 324 324 324 323 322 322 321 322 322 321 321 320
319 323 325 327 333 335 333 333 336 339 338 339 351 358 355 347 346 347 346 344 344 345 336 332 331 331 330 327 322 321 322 320 319 320 322 323 324 324 323 323 324 324 322 322 322 322 321 321 321
318 322 324 324 328 335 335 333 334 336 337 338 344 358 355 348 348 347 345 345 347 345 336 333 333 334 334 332 329 324 322 321 319 321 322 323 323 322 322 322 324 324 324 321 321 322 322 322 322
318 320 323 324 324 329 335 334 333 334 335 339 352 350 349 349 348 346 345 345 347 345 341 335 335 335 335 335 335 333 329 325 323 321 321 320 321 321 324 322 324 322 322 321 321 321 321 322 322
320 321 321 324 325 326 330 336 334 334 334 337 344 341 342 352 349 347 345 345 346 346 345 344 342 337 342 339 336 336 336 335 333 330 328 326 331 341 343 342 337 327 321 321 321 322 328 325 331
321 321 321 322 324 325 327 329 335 335 335 335 348 348 346 345 350 349 346 345 346 347 345 345 344 343 345 345 339 337 337 337 337 337 337 334 345 345 343 337 339 341 338 337 331 338 337 336 338
320 321 321 322 323 324 326 326 334 334 335 334 341 352 340 344 351 350 348 346 345 347 345 346 346 345 346 346 346 344 346 345 347 346 348 345 346 346 346 345 343 342 339 337 337 337 336 336 336
319 321 321 321 322 324 325 326 330 334 334 334 338 356 355 352 352 351 349 348 346 346 346 347 349 346 347 348 348 347 348 348 349 349 349 343 345 346 346 343 342 340 339 339 336 336 337 336 340
319 320 321 321 321 323 325 326 328 334 333 336 354 355 356 355 353 351 347 348 346 347 348 349 350 347 351 350 349 349 347 349 350 350 349 349 349 346 346 345 345 344 343 342 343 341 341 339 341
318 320 321 321 321 323 324 327 329 332 333 333 347 345 346 352 354 352 351 349 347 342 340 349 353 353 353 351 350 349 350 352 349 350 349 350 341 344 346 346 349 350 350 349 348 346 346 347 348
318 319 321 321 322 322 324 327 328 331 332 333 342 334 333 334 355 354 352 349 347 343 347 351 354 355 354 352 351 348 350 348 348 347 347 344 347 347 349 349 351 351 351 352 351 349 348 350 346
319 319 320 322 321 322 324 326 327 328 331 334 334 340 340 356 356 354 351 349 350 349 349 350 353 354 351 351 346 349 348 344 345 344 344 346 350 352 353 351 351 351 352 351 350 351 350 345 347
318 319 321 321 321 322 325 326 327 328 331 334 335 343 351 354 354 353 352 351 350 349 351 352 352 352 341 338 337 336 341 341 344 346 349 353 351 352 352 349 350 350 349 349 345 344 343 345 343
319 319 320 321 322 323 326 327 327 329 331 336 338 343 351 344 352 352 351 351 351 351 353 353 352 353 347 348 342 347 346 349 350 348 351 351 348 348 350 345 343 350 351 349 348 346 346 343 344
319 320 321 322 322 324 326 327 328 330 334 335 342 340 340 345 350 346 353 358 357 357 355 354 352 351 348 342 345 348 349 352 353 350 349 348 345 338 342 344 344 345 345 344 343 341 336 330 334
319 320 321 322 322 324 325 326 327 329 332 333 340 339 337 335 335 338 338 353 355 355 357 355 353 350 347 347 350 349 351 351 349 346 341 339 339 338 336 335 333 335 335 327 320 317 314 315 316
320 321 321 322 323 324 326 327 328 329 333 335 337 333 334 334 333 335 331 342 354 354 352 353 352 347 348 350 348 349 349 347 346 343 338 335 332 330 326 324 322 318 316 314 315 315 314 313 316
320 322 323 322 323 324 325 326 327 329 334 334 337 332 331 330 332 337 345 349 349 350 352 352 353 350 350 351 349 345 349 346 343 341 333 328 324 318 314 313 314 315 316 316 316 315 312 311 318
320 322 323 323 324 323 326 327 328 329 334 334 334 333 332 331 332 335 344 347 351 352 353 352 351 347 348 347 347 348 348 343 338 328 326 325 323 318 316 316 317 317 317 316 316 314 310 319 320
319 322 324 323 325 326 326 326 327 328 334 333 335 334 332 331 330 331 339 347 348 350 351 349 347 348 344 349 350 348 344 337 326 326 325 323 324 324 318 318 317 317 317 316 316 314 312 315 313
320 320 323 325 327 326 326 327 326 328 328 329 333 333 333 332 331 331 332 341 343 347 349 350 350 348 348 349 348 343 335 324 324 323 323 323 324 323 321 320 318 318 317 318 318 316 315 314 317
318 320 323 324 326 326 326 327 326 327 327 328 330 331 333 333 332 331 331 337 340 345 347 350 348 348 346 342 334 323 325 324 324 323 323 321 322 325 323 318 318 318 317 318 318 317 316 316 315
320 320 321 322 324 324 324 326 327 328 327 328 328 328 333 333 332 331 333 336 336 342 346 347 346 343 337 330 322 326 324 325 319 323 326 323 318 318 318 318 318 317 317 317 316 315 315 313 314
320 320 321 321 322 325 325 327 329 329 330 330 329 328 330 332 330 329 329 337 341 344 345 344 340 334 330 326 327 326 325 323 325 325 322 319 318 318 318 318 317 317 317 316 315 314 312 312 311
319 321 323 329 326 327 328 328 325 328 327 328 325 325 326 327 328 328 328 327 342 343 342 338 333 330 328 329 328 328 328 328 327 325 321 318 318 318 318 317 316 316 315 314 312 311 309 309 309
Wind_Speed
9 4 11 16 7 8 17 19 23 13 8 13 12 16 22 18 10 14 29 25 25 29 26 24 21 20 20 19 17 16 13 10 9 11 14 15 13 11 9 9 9 9 9 8 7 6 5 5 6
12 8 11 11 10 14 16 21 25 15 12 15 39 6 25 18 23 28 26 26 24 30 26 23 21 20 20 18 17 16 13 10 8 10 14 14 12 10 8 8 8 7 7 6 5 4 3 3 3
13 8 13 8 14 17 18 21 13 22 29 24 40 14 13 20 25 25 31 28 25 29 26 23 21 20 19 18 17 14 12 9 9 11 14 13 11 9 8 7 6 5 5 4 4 3 2 2 3
8 9 14 13 21 24 28 24 12 20 38 25 10 14 20 21 23 31 31 28 26 27 26 23 21 20 19 18 15 14 11 9 9 12 14 13 10 8 6 5 5 3 3 3 2 2 3 4 5
15 14 11 16 24 24 24 30 18 17 16 14 19 14 19 15 27 33 32 28 28 25 25 24 22 20 18 17 15 13 12 11 10 13 14 12 9 7 5 4 3 2 1 1 1 2 3 5 6
16 22 14 19 23 25 26 33 16 8 24 10 17 19 3 18 30 32 30 29 27 26 26 24 22 20 18 15 14 14 13 12 11 12 12 10 9 7 4 2 1 1 2 2 3 4 5 6 7
20 14 21 24 23 24 27 35 16 12 18 12 41 33 14 20 26 29 28 29 27 23 27 25 24 22 20 17 15 15 13 12 12 12 11 10 8 5 4 3 3 3 4 5 5 6 7 8 9
28 15 24 23 22 26 28 34 22 14 16 9 4 5 19 24 27 27 26 27 26 21 26 26 24 22 20 18 17 15 14 13 12 11 10 8 7 6 6 6 6 6 7 7 8 9 9 10 11
28 16 18 29 29 28 32 24 30 14 22 6 15 21 9 16 24 27 28 26 24 23 22 25 24 22 20 18 17 15 14 12 11 10 9 8 7 6 8 8 7 9 9 10 10 10 11 12 12
23 18 32 25 24 24 32 26 28 16 25 6 31 27 32 20 25 30 31 30 26 26 22 21 21 20 16 15 17 16 14 12 11 9 8 6 2 3 4 10 9 10 11 11 12 10 13 13 8
32 26 26 30 34 35 29 26 41 14 20 18 41 42 53 34 33 30 30 29 26 26 25 21 22 19 19 16 14 14 13 11 10 8 7 6 5 6 9 9 8 8 8 9 8 10 12 11 10
24 34 35 30 35 31 26 33 21 29 34 20 26 47 39 46 38 33 29 28 27 26 25 22 22 19 20 18 8 10 6 3 2 4 7 6 11 11 11 9 12 10 13 10 7 14 12 14 18
28 30 35 38 33 35 34 27 18 38 46 40 19 40 39 35 31 29 28 26 25 27 26 26 25 24 24 16 8 10 11 5 5 8 9 9 7 4 8 6 10 11 12 8 11 14 13 16 17
32 30 31 33 35 33 30 25 24 36 43 34 29 25 24 31 33 29 31 28 28 29 22 19 18 23 19 21 13 13 15 13 11 8 8 7 9 9 11 9 10 7 8 9 11 12 15 17 17
30 25 24 25 30 30 35 22 24 24 42 44 29 30 28 31 33 35 35 31 35 23 20 17 21 22 22 21 18 17 15 7 16 9 10 10 9 12 11 10 9 9 9 13 16 15 15 17 18
24 24 21 26 26 32 32 21 25 31 27 37 32 30 29 5 23 36 40 46 35 29 25 26 21 19 19 19 18 15 5 12 8 10 10 9 9 9 9 6 5 7 12 12 14 17 16 17 21
21 21 27 25 29 24 29 20 25 33 34 18 26 40 46 53 48 41 40 44 36 30 33 31 24 20 21 17 12 13 13 12 12 8 7 8 3 6 10 8 9 12 14 13 15 18 22 24 19
26 28 26 26 27 27 25 21 21 32 33 19 26 23 15 25 27 30 37 38 36 34 32 34 28 25 20 15 13 12 9 9 8 6 10 11 8 9 11 8 12 14 16 17 19 22 25 25 25
23 25 26 26 26 27 25 23 22 26 27 21 28 27 32 32 25 25 31 31 34 32 33 33 33 26 19 16 16 10 12 11 13 14 13 11 16 15 14 14 13 13 12 12 14 18 21 25 26
27 27 26 24 27 25 26 24 23 19 19 25 26 15 22 18 19 1 28 34 35 33 30 28 29 26 21 18 18 9 11 17 17 15 17 15 16 7 6 5 6 7 5 8 13 19 20 19 18
28 26 25 28 27 22 23 28 25 20 24 31 8 10 12 23 20 9 27 25 28 27 27 26 26 24 21 23 21 22 17 17 12 9 11 7 2 2 2 4 5 3 6 9 11 14 17 19 18
23 25 19 31 22 18 27 18 21 23 21 20 12 14 4 12 5 17 13 7 20 20 22 21 21 23 22 20 25 25 18 10 11 13 5 7 6 5 4 5 5 7 9 12 15 16 20 22 21
19 21 26 27 18 23 23 19 21 23 20 17 19 26 29 30 16 23 28 18 16 21 23 22 20 18 24 22 16 17 14 20 21 13 9 8 7 6 4 6 8 10 13 15 18 22 26 22 19
21 20 23 22 13 16 20 22 17 20 21 27 18 33 36 37 16 31 27 24 20 19 20 21 22 21 18 22 17 20 20 22 16 13 10 6 3 5 7 9 10 13 15 18 21 24 26 16 18
19 18 7 13 5 9 22 18 15 21 28 25 22 40 44 33 37 20 19 27 20 18 16 14 18 18 18 19 22 21 21 17 14 16 12 8 7 1 6 8 12 14 17 21 25 29 23 18 23
19 15 9 12 6 14 17 16 23 20 25 27 36 40 38 31 27 34 24 22 22 23 18 19 17 18 23 25 24 23 21 19 18 13 15 11 6 4 5 9 13 17 20 20 22 26 22 25 21
16 16 21 13 21 12 12 25 22 19 13 8 22 26 40 35 25 37 36 31 25 22 19 18 19 22 23 23 25 24 19 19 18 17 12 13 8 4 6 11 16 18 20 19 20 23 22 23 28
16 14 16 9 12 14 14 19 14 19 15 14 10 16 24 32 30 21 23 28 21 25 23 22 22 22 23 25 27 22 21 20 15 17 12 8 2 7 11 14 16 19 20 19 21 26 28 29 25
13 8 8 15 8 9 8 11 14 22 19 16 15 23 38 27 24 22 17 26 33 31 28 26 24 24 21 22 21 19 18 15 10 9 7 3 5 10 13 16 19 18 18 20 25 28 29 25 31
17 18 20 2 8 8 9 3 19 17 14 12 13 12 8 8 14 15 15 13 31 31 30 29 25 21 18 18 17 16 14 12 11 7 4 5 9 13 16 18 19 20 20 22 26 28 28 25 23
Wind_Direction
241 233 308 281 255 232 253 248 256 157 210 327 329 64 77 48 49 103 136 143 162 151 151 150 148 147 152 156 156 153 148 135 123 130 134 134 129 121 115 108 104 101 98 93 90 86 83 79 64
230 271 255 264 240 249 247 246 255 98 49 304 278 87 77 74 106 126 129 144 156 150 153 151 149 148 151 155 157 156 153 144 131 137 143 142 136 129 121 111 107 105 101 95 85 75 68 60 33
228 250 267 232 238 242 255 243 231 130 115 229 247 67 82 114 121 130 140 144 150 148 152 150 148 147 148 152 157 159 158 153 144 148 149 147 142 136 126 118 112 105 100 91 80 62 36 15 353
228 238 245 250 235 231 249 265 328 174 177 196 162 94 112 129 131 136 143 143 142 146 154 149 146 144 146 151 158 162 163 162 157 153 155 151 148 144 134 124 114 108 93 81 68 19 347 337 334
224 248 229 233 240 250 248 253 261 250 277 183 153 140 118 124 138 141 145 144 143 148 153 149 146 143 144 150 158 163 166 165 162 158 159 155 155 155 150 140 123 104 83 19 353 336 330 324 326
215 224 240 230 235 235 251 249 234 214 254 200 92 62 98 136 144 147 145 143 145 162 154 151 146 142 142 145 150 155 158 160 161 161 164 164 170 172 173 175 150 314 303 299 305 309 315 321 325
231 216 231 243 231 241 238 251 229 186 253 238 134 150 151 146 149 148 144 144 149 168 160 156 152 149 144 142 140 145 150 156 161 165 173 178 187 195 218 236 251 277 290 297 300 304 311 317 321
225 241 236 238 247 238 235 243 257 195 238 235 327 129 146 160 154 150 147 148 150 155 161 160 156 155 151 147 144 146 151 158 165 174 184 195 211 231 247 255 265 273 286 291 296 301 306 307 312
222 234 236 234 228 241 247 226 246 213 240 250 88 125 94 136 157 155 153 153 154 154 163 163 162 162 158 156 153 152 153 158 164 179 192 206 225 238 272 263 282 289 288 288 290 297 302 303 309
221 224 230 231 242 237 249 259 227 213 230 191 102 107 138 201 181 167 161 161 160 160 159 163 163 163 157 169 167 164 167 170 174 182 191 197 172 340 325 288 297 313 299 288 290 299 307 306 316
224 232 228 237 241 252 252 256 270 303 263 212 139 140 150 174 199 175 168 166 163 164 162 167 170 159 161 181 180 181 180 185 194 194 192 199 161 222 260 277 314 318 325 314 300 311 313 326 322
227 233 240 233 241 248 258 268 219 246 269 227 193 156 177 177 187 174 171 165 163 165 168 163 181 160 161 192 201 166 172 180 214 205 228 182 193 203 221 237 288 298 312 320 311 289 306 297 275
231 233 232 244 243 245 253 257 230 216 256 277 229 163 172 179 179 173 165 164 165 164 163 160 178 169 160 193 181 157 185 173 200 217 250 225 206 236 263 257 244 231 245 270 285 295 288 277 286
229 236 240 230 244 249 247 246 251 197 236 264 137 151 172 180 179 175 168 166 169 168 162 168 186 179 179 166 170 178 180 202 186 212 249 264 213 216 245 259 289 292 283 275 275 268 270 266 276
242 239 232 241 226 243 250 240 244 229 222 269 138 159 165 255 176 166 163 167 176 187 180 184 189 191 190 173 170 181 193 161 199 186 208 250 228 217 243 238 236 254 279 278 285 285 294 305 305
237 240 233 223 236 229 246 228 236 234 214 235 144 133 137 228 189 170 173 180 192 181 176 178 182 187 188 177 183 183 187 170 197 206 236 242 234 235 243 264 285 295 270 279 282 301 285 279 281
225 224 224 221 222 228 232 222 230 233 239 228 247 162 162 200 191 175 175 166 168 167 178 188 180 193 182 177 175 168 193 192 198 201 218 255 299 298 293 280 256 264 271 277 287 285 287 297 294
209 216 215 221 204 224 222 218 226 231 227 224 239 220 188 145 166 176 156 160 161 174 184 184 177 197 173 180 185 191 197 189 165 173 211 181 206 229 245 258 270 273 275 277 280 285 282 291 295
224 212 218 210 209 214 222 211 216 232 218 207 243 223 158 178 206 190 164 159 159 171 179 181 173 188 168 177 167 165 177 142 200 205 206 217 238 242 258 258 266 275 291 295 296 299 302 299 296
233 220 213 217 210 208 214 228 222 233 204 216 218 42 47 30 201 25 165 150 153 163 178 179 177 183 171 153 136 163 188 177 180 205 225 240 257 260 263 284 287 303 333 316 320 315 325 332 332
226 226 211 228 203 221 205 226 223 219 218 230 175 45 50 51 15 227 311 163 165 169 173 177 179 177 162 155 167 179 179 174 198 233 240 199 182 94 40 29 37 12 316 344 346 339 342 335 322
219 232 251 210 214 217 210 208 222 221 187 237 142 140 120 87 241 229 147 250 155 163 174 174 178 174 160 173 178 191 189 189 169 193 181 141 124 98 67 39 15 349 334 339 346 344 343 336 329
222 213 224 246 225 220 212 230 191 218 182 257 130 132 142 139 195 259 168 179 164 169 168 179 181 172 175 174 174 159 172 175 182 192 159 140 132 114 67 31 22 9 358 354 348 344 343 337 331
210 221 207 248 200 262 183 244 197 208 181 202 167 153 153 157 170 230 163 162 157 153 161 176 182 174 177 168 166 167 184 181 188 147 133 120 85 73 46 31 13 359 351 346 343 343 343 343 315
199 212 185 217 215 198 243 221 224 209 187 190 179 168 172 169 185 187 160 148 153 162 161 179 174 162 165 162 178 175 179 179 144 122 143 144 131 320 1 10 357 349 343 339 336 338 343 320 316
181 194 180 197 183 210 225 235 225 189 218 196 189 185 184 183 192 202 193 166 154 164 170 171 163 166 166 177 178 179 172 148 129 148 146 152 185 251 337 345 339 335 334 332 326 326 328 323 316
206 218 189 202 178 214 177 237 224 205 202 283 202 188 183 185 185 203 177 175 160 160 165 162 168 169 172 170 160 145 137 141 165 160 168 174 165 99 309 326 326 325 326 319 314 313 313 309 306
225 222 208 247 200 218 182 191 217 159 192 219 249 315 175 166 181 198 175 167 177 169 168 171 168 162 163 160 143 143 156 168 163 159 176 187 245 309 325 327 319 320 321 314 312 306 306 312 318
228 274 264 222 232 257 207 200 210 154 162 171 165 191 245 181 190 197 173 168 158 157 157 157 155 157 157 147 148 159 166 163 153 165 195 244 305 317 325 321 322 317 311 308 303 303 306 306 299
202 200 249 126 281 298 230 6 312 158 137 138 173 219 230 176 178 180 185 210 155 154 154 150 151 152 152 152 147 145 143 158 167 190 231 292 310 319 319 319 315 311 306 303 300 300 304 306 297